Flag for U.S.A. Weather past 2 weeks in Durango, Colorado, U.S.A.

Now
57 °F

Clear.


Feels Like: 57 °F
Forecast: 54 / 75 °F
Wind: No wind

Location: Durango-La Plata County Airport

Current Time: Jul 31, 2014 at 3:52:00 AM

Latest Report: Jul 31, 2014 at 2:53 AM


Visibility: 10 mi

Pressure: 29.98 "Hg

Humidity: 72%

Dew point: 48 °F

Location of DurangoLocation

Historic Weather in Durango — Graph

°F

Durango temperature yesterday

Maximum temperature yesterday: 85 °F (at 1:53 PM)
Minimum temperature yesterday: 58 °F (at 4:53 AM)
Average temperature yesterday: 71 °F

Past Weeks' High & Low Weather Summary

 TemperatureHumidityPressure
High94 °F (Jul 22, 5:53 PM)93% (Jul 28, 3:53 AM)30.41 "Hg (Jul 28, 3:53 AM)
Low53 °F (Jul 18, 5:53 AM)8% (Jul 22, 5:53 PM)29.76 "Hg (Jul 17, 4:53 PM)
Average72 °F44%29.99 "Hg
* Reported Jul 16 2:53 AM — Jul 31 2:53 AM, Durango, Weather by CustomWeather, © 2014

Note: Actual official high and low records may vary slightly from our data, if they occured in-between our weather recording intervals... More about our weather records

Advertising

Durango weather history for previous 24 hours

 ConditionsComfort  
Time TempWeatherWind HumidityBarometerVisibility
2:53 AM
Jul 31
57 °FClear.No wind72%29.98 "Hg10 mi
1:53 AM61 °FClear.7 mph67%29.96 "Hg10 mi
12:53 AM63 °FClear.No wind63%29.96 "Hg10 mi
11:53 PM
Jul 30
67 °FClear.3 mph53%29.97 "Hg10 mi
10:53 PM70 °FClear.No wind46%29.97 "Hg10 mi
9:53 PM70 °FClear.6 mph47%29.96 "Hg10 mi
8:53 PM75 °FPassing clouds.7 mph39%29.94 "Hg10 mi
7:53 PM79 °FPartly sunny.13 mph31%29.92 "Hg10 mi
6:53 PM82 °FScattered clouds.14 mph27%29.92 "Hg10 mi
5:53 PM84 °FPassing clouds.15 mph23%29.91 "Hg10 mi
4:53 PM85 °FPassing clouds.16 mph24%29.91 "Hg10 mi
3:53 PM84 °FPassing clouds.13 mph26%29.93 "Hg10 mi
2:53 PM84 °FPassing clouds.17 mph26%29.95 "Hg10 mi
1:53 PM85 °FPassing clouds.16 mph27%29.95 "Hg10 mi
12:53 PM81 °FPassing clouds.N/A30%29.96 "Hg10 mi
11:53 AM78 °FSunny.8 mph33%29.99 "Hg10 mi
10:53 AM74 °FSunny.5 mph38%30.02 "Hg10 mi
9:53 AM71 °FSunny.No wind49%30.03 "Hg10 mi
8:53 AM66 °FSunny.3 mph59%30.05 "Hg10 mi
7:53 AM60 °FSunny.5 mph75%30.06 "Hg10 mi
6:53 AM58 °FPassing clouds.3 mph87%30.03 "Hg10 mi
5:53 AM58 °FMostly cloudy.No wind90%30.03 "Hg10 mi
4:53 AM58 °FPartly cloudy.No wind87%30.00 "Hg10 mi
3:53 AM60 °FMostly cloudy.No wind80%29.98 "Hg10 mi
Weather by CustomWeather, © 2014

See weather overviewHow to use our weather pages